• In Netherlands
  • List of Countries
  • For 7 days
  • Water Temperature
  • Satellite Maps
  • Weather Map
  • Weather Widgets
  • user-avatar
    Login

    Hourly Weather Yeghegnadzor

    Today, 26 June, Monday

    Time Temperature Precipitation Wind Pressure Humidity
    00:00 +17°C° 0 mm 2 mps 654 mmHg 78%
    01:00 +17°C° 0 mm 2 mps 654 mmHg 79%
    02:00 +17°C° 0 mm 2 mps 654 mmHg 80%
    03:00 +16°C° 0 mm 2 mps 653 mmHg 81%
    04:00 +17°C° 0 mm 2 mps 654 mmHg 78%
    05:00 +18°C° 0 mm 2 mps 654 mmHg 75%
    06:00 +19°C° 0 mm 1 mps 655 mmHg 73%
    07:00 +22°C° 0 mm 1 mps 656 mmHg 63%
    08:00 +24°C° 0 mm 1 mps 656 mmHg 52%
    09:00 +27°C° 0 mm 1 mps 657 mmHg 41%
    10:00 +28°C° 0.1 mm 1 mps 657 mmHg 40%
    11:00 +29°C° 0.1 mm 2 mps 657 mmHg 38%
    12:00 +30°C° 0.1 mm 2 mps 657 mmHg 36%
    13:00 +30°C° 0.2 mm 2 mps 657 mmHg 37%
    14:00 +30°C° 0.2 mm 2 mps 656 mmHg 37%
    15:00 +30°C° 0.2 mm 2 mps 656 mmHg 37%
    16:00 +30°C° 0.1 mm 2 mps 656 mmHg 40%
    17:00 +29°C° 0.1 mm 1 mps 656 mmHg 42%
    18:00 +28°C° 0.1 mm 1 mps 656 mmHg 44%
    19:00 +26°C° 0 mm 1 mps 656 mmHg 53%
    20:00 +23°C° 0 mm 2 mps 655 mmHg 63%
    21:00 +20°C° 0 mm 2 mps 655 mmHg 72%
    22:00 +19°C° 0 mm 2 mps 655 mmHg 74%
    23:00 +19°C° 0 mm 2 mps 655 mmHg 76%

    Tomorrow, 27 June, Tuesday

    Time Temperature Precipitation Wind Pressure Humidity
    00:00 +19°C° 0 mm 2 mps 655 mmHg 78%
    01:00 +18°C° 0 mm 2 mps 655 mmHg 78%
    02:00 +18°C° 0 mm 2 mps 655 mmHg 78%
    03:00 +17°C° 0 mm 2 mps 655 mmHg 78%
    04:00 +19°C° 0 mm 1 mps 655 mmHg 73%
    05:00 +20°C° 0 mm 1 mps 655 mmHg 69%
    06:00 +21°C° 0 mm 1 mps 656 mmHg 64%
    07:00 +24°C° 0 mm 1 mps 656 mmHg 54%
    08:00 +26°C° 0 mm 1 mps 656 mmHg 44%
    09:00 +29°C° 0 mm 1 mps 657 mmHg 35%
    10:00 +30°C° 0 mm 1 mps 657 mmHg 32%
    11:00 +32°C° 0 mm 2 mps 657 mmHg 29%
    12:00 +34°C° 0 mm 2 mps 656 mmHg 26%
    13:00 +34°C° 0 mm 2 mps 656 mmHg 25%
    14:00 +35°C° 0 mm 2 mps 656 mmHg 24%
    15:00 +35°C° 0 mm 2 mps 655 mmHg 23%
    16:00 +34°C° 0 mm 2 mps 655 mmHg 27%
    17:00 +32°C° 0 mm 1 mps 655 mmHg 32%
    18:00 +31°C° 0 mm 1 mps 654 mmHg 36%
    19:00 +29°C° 0 mm 1 mps 654 mmHg 44%
    20:00 +26°C° 0 mm 1 mps 653 mmHg 51%
    21:00 +23°C° 0 mm 2 mps 653 mmHg 59%
    22:00 +23°C° 0 mm 2 mps 653 mmHg 60%
    23:00 +21°C° 0 mm 2 mps 653 mmHg 60%

    Day after tomorrow, 28 June, Wednesday

    Time Temperature Precipitation Wind Pressure Humidity
    00:00 +21°C° 0 mm 2 mps 653 mmHg 61%
    01:00 +20°C° 0 mm 2 mps 652 mmHg 61%
    02:00 +20°C° 0 mm 2 mps 652 mmHg 61%
    03:00 +20°C° 0 mm 1 mps 652 mmHg 60%
    04:00 +21°C° 0 mm 1 mps 652 mmHg 58%
    05:00 +23°C° 0 mm 1 mps 653 mmHg 55%
    06:00 +24°C° 0 mm 1 mps 653 mmHg 52%
    07:00 +26°C° 0 mm 1 mps 654 mmHg 44%
    08:00 +29°C° 0 mm 1 mps 654 mmHg 37%
    09:00 +32°C° 0 mm 1 mps 655 mmHg 30%
    10:00 +33°C° 0 mm 1 mps 655 mmHg 27%
    11:00 +35°C° 0 mm 2 mps 655 mmHg 24%
    12:00 +36°C° 0 mm 2 mps 655 mmHg 21%
    13:00 +37°C° 0.1 mm 2 mps 654 mmHg 21%
    14:00 +37°C° 0.1 mm 2 mps 654 mmHg 20%
    15:00 +37°C° 0.1 mm 2 mps 653 mmHg 20%
    16:00 +36°C° 0.2 mm 2 mps 653 mmHg 27%
    17:00 +34°C° 0.2 mm 2 mps 652 mmHg 33%
    18:00 +32°C° 0.2 mm 2 mps 652 mmHg 40%
    19:00 +29°C° 0.1 mm 2 mps 652 mmHg 48%
    20:00 +27°C° 0.1 mm 2 mps 652 mmHg 57%
    21:00 +24°C° 0.1 mm 2 mps 652 mmHg 65%
    22:00 +23°C° 0 mm 2 mps 651 mmHg 67%
    23:00 +23°C° 0 mm 2 mps 651 mmHg 69%

    29 June, Thursday

    Time Temperature Precipitation Wind Pressure Humidity
    00:00 +21°C° 0 mm 2 mps 651 mmHg 72%
    01:00 +21°C° 0 mm 2 mps 651 mmHg 73%
    02:00 +20°C° 0 mm 2 mps 651 mmHg 74%
    03:00 +20°C° 0 mm 2 mps 651 mmHg 75%
    04:00 +20°C° 0.1 mm 2 mps 652 mmHg 73%
    05:00 +22°C° 0.1 mm 1 mps 652 mmHg 70%
    06:00 +23°C° 0.1 mm 1 mps 652 mmHg 68%
    07:00 +25°C° 0.1 mm 1 mps 653 mmHg 58%
    08:00 +28°C° 0.1 mm 1 mps 654 mmHg 48%
    09:00 +31°C° 0.1 mm 1 mps 654 mmHg 37%
    10:00 +32°C° 0.2 mm 1 mps 654 mmHg 35%
    11:00 +34°C° 0.2 mm 2 mps 654 mmHg 33%
    12:00 +35°C° 0.2 mm 2 mps 654 mmHg 31%
    13:00 +35°C° 0.5 mm 2 mps 653 mmHg 32%
    14:00 +35°C° 0.5 mm 2 mps 653 mmHg 33%
    15:00 +35°C° 0.5 mm 2 mps 652 mmHg 34%
    16:00 +34°C° 0.3 mm 2 mps 652 mmHg 37%
    17:00 +31°C° 0.3 mm 2 mps 652 mmHg 40%
    18:00 +30°C° 0.3 mm 2 mps 652 mmHg 42%
    19:00 +28°C° 0.3 mm 2 mps 651 mmHg 50%
    20:00 +25°C° 0.3 mm 2 mps 651 mmHg 58%
    21:00 +21°C° 0.3 mm 2 mps 651 mmHg 65%
    22:00 +21°C° 0.1 mm 2 mps 651 mmHg 66%
    23:00 +20°C° 0.1 mm 2 mps 651 mmHg 67%

    30 June, Friday

    Time Temperature Precipitation Wind Pressure Humidity
    00:00 +19°C° 0.1 mm 2 mps 651 mmHg 68%
    01:00 +19°C° 0.1 mm 2 mps 651 mmHg 67%
    02:00 +18°C° 0.1 mm 2 mps 651 mmHg 67%
    03:00 +18°C° 0.1 mm 2 mps 651 mmHg 66%
    04:00 +19°C° 0 mm 2 mps 651 mmHg 63%
    05:00 +19°C° 0 mm 2 mps 652 mmHg 59%
    06:00 +20°C° 0 mm 2 mps 652 mmHg 56%
    07:00 +23°C° 0 mm 2 mps 653 mmHg 47%
    08:00 +26°C° 0 mm 1 mps 653 mmHg 39%
    09:00 +29°C° 0 mm 1 mps 654 mmHg 31%
    10:00 +30°C° 0 mm 2 mps 654 mmHg 29%
    11:00 +31°C° 0 mm 2 mps 654 mmHg 26%
    12:00 +32°C° 0 mm 2 mps 654 mmHg 24%
    13:00 +32°C° 0.1 mm 2 mps 654 mmHg 25%
    14:00 +32°C° 0.1 mm 2 mps 653 mmHg 27%
    15:00 +33°C° 0.1 mm 3 mps 653 mmHg 28%
    16:00 +31°C° 0 mm 3 mps 653 mmHg 30%
    17:00 +29°C° 0 mm 3 mps 653 mmHg 33%
    18:00 +28°C° 0 mm 3 mps 653 mmHg 35%
    19:00 +26°C° 0 mm 3 mps 652 mmHg 40%
    20:00 +24°C° 0 mm 3 mps 652 mmHg 46%
    21:00 +20°C° 0 mm 3 mps 652 mmHg 52%
    22:00 +20°C° 0 mm 2 mps 653 mmHg 52%
    23:00 +20°C° 0 mm 2 mps 653 mmHg 53%

    1 July, Saturday

    Time Temperature Precipitation Wind Pressure Humidity
    00:00 +19°C° 0 mm 2 mps 653 mmHg 53%
    01:00 +19°C° 0 mm 2 mps 653 mmHg 53%
    02:00 +18°C° 0 mm 2 mps 653 mmHg 52%
    03:00 +18°C° 0 mm 2 mps 653 mmHg 52%
    04:00 +18°C° 0 mm 2 mps 653 mmHg 52%
    05:00 +18°C° 0 mm 2 mps 653 mmHg 51%
    06:00 +19°C° 0 mm 2 mps 654 mmHg 51%
    07:00 +21°C° 0 mm 2 mps 654 mmHg 43%
    08:00 +25°C° 0 mm 2 mps 655 mmHg 36%
    09:00 +27°C° 0 mm 2 mps 656 mmHg 29%
    10:00 +29°C° 0 mm 2 mps 656 mmHg 27%
    11:00 +30°C° 0 mm 2 mps 656 mmHg 25%
    12:00 +31°C° 0 mm 2 mps 656 mmHg 23%
    13:00 +33°C° 0 mm 3 mps 656 mmHg 24%
    14:00 +33°C° 0 mm 3 mps 655 mmHg 24%
    15:00 +33°C° 0 mm 3 mps 655 mmHg 25%
    16:00 +31°C° 0 mm 3 mps 655 mmHg 28%
    17:00 +30°C° 0 mm 3 mps 655 mmHg 32%
    18:00 +28°C° 0 mm 3 mps 654 mmHg 36%
    19:00 +26°C° 0 mm 3 mps 654 mmHg 44%
    20:00 +24°C° 0 mm 3 mps 654 mmHg 51%
    21:00 +20°C° 0 mm 2 mps 654 mmHg 59%
    22:00 +19°C° 0 mm 2 mps 654 mmHg 59%
    23:00 +19°C° 0 mm 2 mps 654 mmHg 59%
    Show more